Weather History for Steamboat Springs, CO

Change the Weather History Date:

Thursday, March 7, 2013

  Actual Average Record
Temperature  
Mean Temperature 35 °F -  
Max Temperature 49 °F 41 °F 56 °F (1987)
Min Temperature 21 °F 14 °F -20 °F (1922)
Degree Days  
Heating Degree Days 30    
Moisture  
Dew Point 18 °F    
Average Humidity 57    
Maximum Humidity 78    
Minimum Humidity 28    
Precipitation  
Precipitation 0.00 in - - ()
Sea Level Pressure  
Sea Level Pressure 29.97 in    
Wind  
Wind Speed 0 mph (SW)    
Max Wind Speed 4 mph    
Max Gust Speed -    
Visibility 10 miles    
Events      
Averages and records for this station are not official NWS values.
T = Trace of Precipitation, MM = Missing Value Source: NWS Daily Summary

Daily Weather History Graph

Daily Weather History Graph

Search for Another Location

Airport:

Trip Planner

Search our weather history database for the weather conditions in past years. The results will help you decide how hot, cold, wet, or windy it might be!

Date:

Astronomy

Mar. 07, 2013 Rise Set
Actual Time 6:31 AM MST 6:05 PM MST
Civil Twilight 6:04 AM MST 6:33 PM MST
Nautical Twilight 5:32 AM MST 7:04 PM MST
Astronomical Twilight 5:00 AM MST 7:36 PM MST
Moon 3:34 AM MST (3/7) 1:56 PM MST (3/7)
Length of Visible Light 12h 29m
Length of Day
11h 34m
Waning Crescent, 19% of the Moon is Illuminated
Mar 7
Waning Crescent
Mar 11
New
Mar 19
First Quarter
Mar 27
Full
Apr 2
Last Quarter

Hourly Weather History & Observations

Time (MST) Temp. Windchill Dew Point Humidity Pressure Visibility Wind Dir Wind Speed Gust Speed Precip Events Conditions
12:15 AM 26.4 °F - 17.6 °F 69% 29.94 in 10.0 mi Calm Calm - N/A   Clear
12:35 AM 26.4 °F - 16.7 °F 67% 29.94 in 10.0 mi Calm Calm - N/A   Clear
12:55 AM 25.5 °F - 18.1 °F 74% 29.94 in 10.0 mi Calm Calm - N/A   Clear
1:15 AM 26.2 °F - 17.6 °F 70% 29.94 in 10.0 mi Calm Calm - N/A   Clear
1:35 AM 25.5 °F - 17.4 °F 71% 29.94 in 10.0 mi Calm Calm - N/A   Clear
1:55 AM 25.3 °F - 16.9 °F 70% 29.95 in 10.0 mi Calm Calm - N/A   Clear
2:15 AM 25.2 °F - 17.4 °F 72% 29.94 in 10.0 mi Calm Calm - N/A   Scattered Clouds
2:35 AM 24.6 °F - 17.2 °F 74% 29.94 in 10.0 mi Calm Calm - N/A   Mostly Cloudy
2:55 AM 25.2 °F - 17.1 °F 71% 29.94 in 10.0 mi Calm Calm - N/A   Mostly Cloudy
3:15 AM 24.8 °F - 16.9 °F 72% 29.94 in 10.0 mi Calm Calm - N/A   Scattered Clouds
3:35 AM 24.8 °F - 16.9 °F 72% 29.94 in 10.0 mi Calm Calm - N/A   Clear
3:55 AM 24.4 °F - 16.5 °F 72% 29.94 in 10.0 mi Calm Calm - N/A   Clear
4:15 AM 23.7 °F - 16.5 °F 74% 29.95 in 10.0 mi Calm Calm - N/A   Scattered Clouds
4:35 AM 22.5 °F - 16.2 °F 77% 29.95 in 10.0 mi Calm Calm - N/A   Scattered Clouds
4:55 AM 23.7 °F - 16.3 °F 73% 29.96 in 10.0 mi Calm Calm - N/A   Scattered Clouds
5:15 AM 22.8 °F - 16.9 °F 78% 29.97 in 10.0 mi Calm Calm - N/A   Scattered Clouds
5:35 AM 23.5 °F - 16.5 °F 75% 29.97 in 10.0 mi Calm Calm - N/A   Scattered Clouds
5:55 AM 23.4 °F - 17.2 °F 77% 29.98 in 10.0 mi Calm Calm - N/A   Scattered Clouds
6:15 AM 23.0 °F - 16.0 °F 74% 29.98 in 10.0 mi Calm Calm - N/A   Scattered Clouds
6:35 AM 22.5 °F - 16.0 °F 76% 29.99 in 10.0 mi Calm Calm - N/A   Scattered Clouds
6:55 AM 21.9 °F - 16.2 °F 78% 29.99 in 10.0 mi Calm Calm - N/A   Scattered Clouds
7:15 AM 21.2 °F - 15.4 °F 78% 30.00 in 10.0 mi Calm Calm - N/A   Clear
7:35 AM 22.5 °F - 16.3 °F 77% 30.00 in 10.0 mi Calm Calm - N/A   Clear
7:55 AM 23.0 °F - 16.0 °F 74% 30.00 in 10.0 mi Calm Calm - N/A   Clear
8:15 AM 24.3 °F - 15.6 °F 70% 30.00 in 10.0 mi Calm Calm - N/A   Clear
8:35 AM 26.8 °F - 16.2 °F 64% 30.00 in 10.0 mi Calm Calm - N/A   Clear
8:55 AM 26.6 °F - 15.4 °F 63% 30.00 in 10.0 mi Calm Calm - N/A   Clear
9:15 AM 28.2 °F - 15.6 °F 59% 29.99 in 10.0 mi Calm Calm - N/A   Clear
9:35 AM 28.2 °F - 15.6 °F 59% 30.00 in 10.0 mi Calm Calm - N/A   Clear
9:55 AM 30.0 °F - 16.7 °F 58% 29.99 in 10.0 mi Calm Calm - N/A   Clear
10:15 AM 34.5 °F - 17.8 °F 50% 29.99 in 10.0 mi Calm Calm - N/A   Clear
10:35 AM 32.2 °F - 17.2 °F 54% 29.98 in 10.0 mi Calm Calm - N/A   Clear
10:55 AM 34.0 °F - 18.3 °F 53% 29.98 in 10.0 mi Calm Calm - N/A   Clear
11:15 AM 35.6 °F - 18.1 °F 49% 29.98 in 10.0 mi Calm Calm - N/A   Clear
11:35 AM 39.0 °F - 18.1 °F 43% 29.98 in 10.0 mi Calm Calm - N/A   Clear
11:55 AM 38.3 °F - 19.0 °F 46% 29.99 in 10.0 mi Calm Calm - N/A   Clear
12:15 PM 39.0 °F - 19.2 °F 45% 29.99 in 10.0 mi Calm Calm - N/A   Clear
12:35 PM 40.6 °F - 17.8 °F 40% 29.98 in 10.0 mi Calm Calm - N/A   Clear
12:55 PM 43.9 °F - 16.7 °F 34% 29.98 in 10.0 mi Calm Calm - N/A   Clear
1:15 PM 44.4 °F - 17.1 °F 33% 29.96 in 10.0 mi Calm Calm - N/A   Clear
1:35 PM 46.4 °F - 17.6 °F 32% 29.96 in 10.0 mi Calm Calm - N/A   Clear
1:55 PM 44.6 °F - 19.0 °F 36% 29.96 in 10.0 mi Calm Calm - N/A   Clear
2:15 PM 47.8 °F - 17.6 °F 30% 29.95 in 10.0 mi Calm Calm - N/A   Clear
2:35 PM 47.3 °F - 17.8 °F 31% 29.95 in 10.0 mi Calm Calm - N/A   Clear
2:55 PM 46.9 °F - 17.2 °F 31% 29.96 in 10.0 mi Calm Calm - N/A   Clear
3:15 PM 49.3 °F - 17.1 °F 28% 29.96 in 10.0 mi Calm Calm - N/A   Clear
3:35 PM 47.3 °F - 18.5 °F 32% 29.95 in 10.0 mi Calm Calm - N/A   Clear
3:55 PM 48.2 °F - 17.6 °F 30% 29.95 in 10.0 mi Calm Calm - N/A   Clear
4:15 PM 48.2 °F - 18.3 °F 31% 29.95 in 10.0 mi Calm Calm - N/A   Clear
4:35 PM 46.4 °F - 19.2 °F 34% 29.94 in 10.0 mi Calm Calm - N/A   Clear
4:55 PM 44.6 °F - 19.0 °F 36% 29.94 in 10.0 mi Calm Calm - N/A   Clear
6:35 PM 39.2 °F 37.0 °F 20.7 °F 47% 29.95 in 10.0 mi SW 3.5 mph - N/A   Clear
6:55 PM 37.0 °F - 20.7 °F 52% 29.95 in 10.0 mi Calm Calm - N/A   Clear
7:15 PM 37.4 °F - 21.0 °F 52% 29.95 in 10.0 mi Calm Calm - N/A   Clear
7:35 PM 37.0 °F - 20.3 °F 51% 29.96 in 10.0 mi Calm Calm - N/A   Clear
7:55 PM 35.1 °F - 19.9 °F 54% 29.95 in 10.0 mi Calm Calm - N/A   Clear
8:15 PM 33.6 °F - 19.9 °F 57% 29.95 in 10.0 mi Calm Calm - N/A   Clear
8:35 PM 32.0 °F 28.7 °F 20.3 °F 62% 29.96 in 10.0 mi NW 3.5 mph - N/A   Clear
8:55 PM 32.0 °F - 19.2 °F 59% 29.97 in 10.0 mi Calm Calm - N/A   Clear
9:15 PM 32.4 °F - 18.5 °F 57% 29.98 in 10.0 mi Calm Calm - N/A   Clear
9:35 PM 30.9 °F 27.5 °F 19.0 °F 61% 29.97 in 10.0 mi ESE 3.5 mph - N/A   Clear
9:55 PM 30.6 °F - 18.9 °F 62% 29.97 in 10.0 mi Calm Calm - N/A   Clear
10:15 PM 30.7 °F - 19.0 °F 62% 29.98 in 10.0 mi Calm Calm - N/A   Clear
10:35 PM 31.3 °F - 17.4 °F 57% 29.97 in 10.0 mi Calm Calm - N/A   Clear
10:55 PM 30.2 °F - 16.7 °F 57% 29.97 in 10.0 mi Calm Calm - N/A   Clear
11:15 PM 28.8 °F - 16.7 °F 61% 29.97 in 10.0 mi Calm Calm - N/A   Scattered Clouds
11:29 PM 29.3 °F - 15.6 °F 57% 29.96 in 10.0 mi Calm Calm - N/A   Clear
11:50 PM 28.8 °F - 15.8 °F 58% 29.96 in 10.0 mi Calm Calm - N/A   Scattered Clouds